[[{"header":{"parameterUnit":"m.s-1","parameterCategory":1,"la1":30.2991,"la2":30.254,"lo1":-89.0895,"lo2":-89.0444,"dy":0.0017,"dx":0.0017,"nx":28,"ny":28,"refTime":"2025-03-26T21:00:00:Z","depth":0,"parameterNumber":2,"parameterNumberName":"U-component_of_WINDS"},"data":[0,0,0,0,0,0,0,0,0,0,0,0,0,0,0,0,0,0,0,0,0,0,0,0,0,0,0,0,0,0,0,0,0,0,0,0,0,0,0,0,0,0,0,0,0,0,0,0,0,0,0,0,0,0,0,0,0,0,-0.0644,-0.0642,0,-0.0472,-0.047,-0.0468,-0.0422,-0.0423,-0.0424,-0.0425,-0.0245,-0.0239,-0.0234,0,0,0,0,0,0,0,0,0,0,0,0,0,-0.0929,-0.0924,-0.0644,-0.0642,-0.064,-0.0472,-0.047,-0.0468,-0.0421,-0.0423,-0.0424,-0.0425,-0.0247,-0.024,-0.0233,0,0,0,0,0,0,0,0,0,0,0,0,0,-0.0786,-0.0922,-0.0644,-0.0597,-0.0591,-0.0473,-0.047,-0.0467,-0.0421,-0.0423,-0.0424,-0.0426,-0.0249,-0.0241,-0.0232,-0.0148,0,0,-0.0206,-0.0202,0,0,0,0,0,0,0,0,-0.0794,-0.0775,-0.0606,-0.06,-0.0593,-0.047,-0.0504,-0.036,-0.0421,-0.0485,-0.0425,-0.0426,-0.0318,-0.0304,-0.0268,-0.014,-0.0132,-0.0205,-0.02,-0.0196,-0.0194,0,0,0,0,0,0,0,-0.0804,-0.0783,-0.0576,-0.0603,-0.0595,-0.0583,-0.0564,-0.0477,-0.0395,-0.048,-0.0476,-0.0457,-0.0315,-0.0277,-0.0264,-0.013,-0.0205,-0.0198,-0.0192,-0.0189,0.0076,0.0078,0,0,0,0,0,0,-0.0823,-0.0791,-0.0581,-0.0571,-0.0699,-0.0576,-0.0555,-0.0508,-0.0396,-0.0381,-0.0455,-0.0455,-0.0291,-0.0274,-0.0257,-0.0152,-0.0196,-0.0188,-0.0183,0.0074,0.0077,0.0079,0,0,0,0,0,0,-0.0829,-0.0804,-0.0588,-0.068,-0.0651,-0.057,-0.0517,-0.0504,-0.0465,-0.0378,-0.0363,-0.0432,-0.0291,-0.0269,-0.0176,-0.0145,-0.0184,-0.0176,0.0072,0.0075,0.0078,0.0059,0,0,0,0,0,0,-0.0837,-0.0807,-0.0775,-0.0679,-0.0647,-0.0511,-0.0515,-0.0499,-0.0451,-0.0449,-0.0351,-0.0337,-0.0291,-0.0189,-0.0168,-0.0134,-0.017,0.007,0.0073,0.0077,0.0057,0.0061,0.0064,0,0,0,0,0,-0.0848,-0.0786,-0.0774,-0.0749,-0.0605,-0.0509,-0.049,-0.044,-0.0449,-0.0416,-0.0359,-0.034,-0.0152,-0.018,-0.0155,-0.0119,0.0068,0.0072,0.0077,0.0056,0.006,0.0064,0,0,0,0,0,0,-0.0879,-0.0773,-0.0758,-0.0664,-0.0596,-0.0502,-0.0458,-0.0437,-0.0364,-0.0365,-0.0305,-0.0283,-0.0194,-0.0147,-0.018,-0.0032,-0.0042,-0.0032,-0.0066,-0.0061,-0.0058,-0.0071,-0.0163,0,0,0,0,0,-0.0875,-0.0808,-0.0718,-0.0644,-0.0611,-0.0541,-0.0497,-0.0464,-0.0391,-0.0362,-0.0298,-0.0227,-0.0152,-0.0104,-0.003,0.0064,0.0086,0.0102,0.0105,0.0107,0.0115,0.0168,0.0176,0.0093,0.0093,0.0093,0,0,-0.0866,-0.08,-0.0761,-0.0648,-0.0592,-0.0522,-0.0517,-0.0443,-0.039,-0.035,-0.0258,-0.021,-0.0126,-0.0032,0.0013,0.001,0.0143,0.0113,0.0114,0.012,0.0173,0.0181,0.0188,0.0096,0.0095,0.0095,0,0,-0.0815,-0.0758,-0.069,-0.0634,-0.0549,-0.0503,-0.0487,-0.0395,-0.0362,-0.0269,-0.0238,-0.0174,-0.0046,0.0013,0.0059,0.0132,0.0153,0.0155,0.0172,0.0224,0.023,0.0236,0.0262,0.0271,0.0162,0.0162,0.0162,0,-0.0814,-0.0709,-0.0657,-0.0585,-0.0537,-0.0498,-0.0429,-0.0376,-0.0271,-0.0238,-0.0243,-0.0082,-0.0023,0.0085,0.0103,0.0139,0.016,0.0144,0.0225,0.0231,0.0238,0.0264,0.0273,0.0162,0.0162,0.0162,0.0162,0,-0.0712,-0.0639,-0.0595,-0.0496,-0.0442,-0.0371,-0.0309,-0.026,-0.0232,-0.0185,-0.0091,-0.0019,0.007,0.0098,0.0127,0.0211,0.0206,0.0212,0.0204,0.0245,0.027,0.028,0.0161,0.0161,0.0161,0.0161,0,0,-0.0675,-0.055,-0.0534,-0.0489,-0.0392,-0.0335,-0.0262,-0.0176,-0.0136,-0.0065,-0.0002,0.0105,0.0111,0.0164,0.02,0.0245,0.0298,0.0246,0.0249,0.0253,0.0395,0.0389,0.0399,0.0312,0.0315,0.0316,0.0387,0,-0.0612,-0.0482,-0.0434,-0.0327,-0.0259,-0.0222,-0.0159,-0.0092,-0.0047,0.0019,0.007,0.0145,0.0147,0.0179,0.0225,0.0282,0.0327,0.0277,0.0372,0.0375,0.035,0.0413,0.0407,0.0471,0.0398,0.0399,0.0401,0,-0.052,-0.045,-0.0337,-0.0249,-0.0219,-0.0163,-0.0081,-0.0019,0.0057,0.0088,0.0146,0.0179,0.0257,0.0243,0.0352,0.0317,0.0359,0.0393,0.0396,0.0407,0.039,0.0425,0.0493,0.0502,0.0417,0.0415,0.0414,0,-0.0506,-0.0382,-0.0298,-0.0261,-0.0156,-0.0118,-0.0072,0.0002,0.0051,0.0123,0.0156,0.0237,0.0281,0.0344,0.0398,0.0383,0.0502,0.0493,0.053,0.0529,0.0554,0.0551,0.0628,0.0581,0.058,0.058,0.058,0,-0.044,-0.0372,-0.029,-0.0239,-0.0162,-0.0107,-0.0031,0.0017,0.0083,0.0145,0.0183,0.0241,0.0309,0.0375,0.0419,0.0502,0.0522,0.055,0.056,0.0546,0.0543,0.0574,0.0571,0.0583,0.0582,0.0582,0.0581,0,-0.041,-0.0353,-0.0259,-0.0168,-0.0144,-0.0091,-0.0013,0.0039,0.0086,0.0164,0.0186,0.0261,0.0341,0.0401,0.0506,0.0535,0.0624,0.0636,0.0598,0.0603,0.0637,0.0633,0.0737,0.0754,0.0695,0.0695,0.0695,0,-0.0372,-0.032,-0.0223,-0.018,-0.0135,-0.0065,-0.0016,0.0041,0.0091,0.0182,0.0223,0.0306,0.0375,0.0502,0.0567,0.0647,0.066,0.0691,0.0673,0.0657,0.0661,0.0657,0.0662,0.0694,0.0694,0.0694,0.0695,0,-0.0311,-0.0285,-0.0217,-0.0138,-0.008,-0.0015,0.0051,0.0085,0.0154,0.0208,0.029,0.0344,0.045,0.0532,0.0619,0.0667,0.0693,0.07,0.0713,0.0699,0.0675,0.0688,0.0605,0.0697,0.0697,0.0697,0.0697,0.0697,-0.0276,-0.0228,-0.0153,-0.0077,-0.0022,0.0039,0.0092,0.0145,0.0214,0.0304,0.0334,0.0419,0.0495,0.0613,0.0662,0.073,0.073,0.0749,0.0754,0.0757,0.0756,0.0664,0.0747,0.0747,0.0747,0.0747,0.0747,0,-0.0213,-0.0163,-0.0095,-0.0004,0.0056,0.0073,0.0147,0.0196,0.027,0.0338,0.0404,0.0499,0.0579,0.0649,0.0732,0.0773,0.0787,0.0793,0.079,0.0801,0.0752,0.0732,0.078,0.078,0.078,0.078,0.078,0.078,-0.0174,-0.0091,-0.0056,0.0054,0.0105,0.0187,0.0227,0.0284,0.0338,0.0441,0.0507,0.0552,0.0622,0.071,0.0784,0.0803,0.0832,0.0835,0.0856,0.0809,0.0805,0.0801,0.0782,0.0841,0.0841,0.09,0.0901,0.0901]},{"header":{"parameterUnit":"m.s-1","parameterCategory":1,"la1":30.2991,"la2":30.254,"lo1":-89.0895,"lo2":-89.0444,"dy":0.0017,"dx":0.0017,"nx":28,"ny":28,"refTime":"2025-03-26T21:00:00:Z","depth":0,"parameterNumber":3,"parameterNumberName":"V-component_of_WINDS"},"data":[0,0,0,0,0,0,0,0,0,0,0,0,0,0,0,0,0,0,0,0,0,0,0,0,0,0,0,0,0,0,0,0,0,0,0,0,0,0,0,0,0,0,0,0,0,0,0,0,0,0,0,0,0,0,0,0,0,0,1.5534,1.5533,0,1.5504,1.5504,1.5504,1.5441,1.544,1.5438,1.5437,1.5409,1.541,1.541,0,0,0,0,0,0,0,0,0,0,0,0,0,1.5538,1.5538,1.5534,1.5533,1.5533,1.5504,1.5504,1.5504,1.5441,1.544,1.5438,1.5437,1.5409,1.541,1.541,0,0,0,0,0,0,0,0,0,0,0,0,0,1.5525,1.5539,1.5534,1.5498,1.5495,1.5504,1.5504,1.5503,1.5441,1.544,1.5438,1.5436,1.5409,1.541,1.541,1.5453,0,0,1.5412,1.5413,0,0,0,0,0,0,0,0,1.5526,1.5525,1.5504,1.5501,1.5497,1.5474,1.5495,1.5487,1.5442,1.5462,1.5437,1.5435,1.5433,1.5431,1.543,1.5451,1.545,1.5412,1.5413,1.5413,1.5413,0,0,0,0,0,0,0,1.5527,1.5526,1.5522,1.5504,1.5499,1.5485,1.5481,1.5493,1.5458,1.546,1.5455,1.5453,1.543,1.543,1.5429,1.545,1.5412,1.5413,1.5413,1.5414,1.5505,1.5507,0,0,0,0,0,0,1.5533,1.5527,1.5523,1.5521,1.5507,1.5486,1.5482,1.5483,1.5458,1.5452,1.5454,1.545,1.5429,1.5428,1.5428,1.5476,1.5413,1.5414,1.5414,1.5503,1.5506,1.5508,0,0,0,0,0,0,1.5533,1.5533,1.5524,1.5523,1.5521,1.5488,1.5491,1.5484,1.5483,1.5454,1.5447,1.546,1.5428,1.5427,1.5447,1.5474,1.5414,1.5415,1.5501,1.5504,1.5507,1.5573,0,0,0,0,0,0,1.5534,1.5534,1.5549,1.5524,1.5521,1.5544,1.5492,1.5485,1.5484,1.5478,1.5457,1.5452,1.5426,1.5446,1.5448,1.5474,1.5415,1.5498,1.5502,1.5506,1.5569,1.5578,1.5587,0,0,0,0,0,1.5534,1.5569,1.555,1.555,1.5539,1.5545,1.5544,1.5513,1.5486,1.5502,1.5483,1.5452,1.5471,1.5449,1.545,1.5477,1.5496,1.5501,1.5506,1.5565,1.5576,1.5586,0,0,0,0,0,0,1.5599,1.5565,1.5543,1.5571,1.5562,1.5535,1.5553,1.5526,1.5524,1.5519,1.5481,1.5477,1.5503,1.5492,1.5468,1.5517,1.5479,1.5484,1.5523,1.5534,1.5543,1.5546,1.5416,0,0,0,0,0,1.5616,1.5623,1.5593,1.5621,1.5617,1.5586,1.5588,1.5565,1.5553,1.5549,1.5532,1.5523,1.5526,1.553,1.5531,1.5566,1.5562,1.5586,1.5595,1.5602,1.5607,1.5626,1.5637,1.5523,1.5523,1.5523,0,0,1.5653,1.5635,1.5642,1.5634,1.5623,1.5632,1.5583,1.5594,1.5601,1.5551,1.5569,1.5556,1.5543,1.5572,1.5583,1.5563,1.5638,1.5608,1.5614,1.5615,1.5632,1.5643,1.5652,1.5526,1.5525,1.5525,0,0,1.5724,1.5711,1.5732,1.5723,1.5708,1.5687,1.5692,1.5669,1.5659,1.5676,1.5639,1.5646,1.5653,1.5646,1.5643,1.5712,1.5684,1.5713,1.5761,1.5779,1.5788,1.5796,1.5822,1.5831,1.5718,1.5718,1.5718,0,1.5771,1.5782,1.5747,1.5761,1.5759,1.5713,1.5735,1.5728,1.5715,1.5715,1.5692,1.5701,1.5689,1.5715,1.5732,1.5731,1.5736,1.5716,1.579,1.5797,1.5804,1.5828,1.5837,1.5722,1.5722,1.5721,1.5721,0,1.5841,1.585,1.5869,1.5857,1.5857,1.5875,1.5844,1.5848,1.5825,1.5807,1.5826,1.581,1.5808,1.5812,1.579,1.5836,1.5824,1.5796,1.5757,1.5819,1.5841,1.585,1.5727,1.5726,1.5725,1.5724,0,0,1.5953,1.5921,1.5929,1.5923,1.5903,1.5909,1.5925,1.5922,1.5927,1.592,1.5933,1.594,1.5914,1.5911,1.5888,1.5904,1.5961,1.5875,1.5874,1.5892,1.6011,1.6033,1.6044,1.5942,1.5943,1.5945,1.6013,0,1.602,1.6045,1.6015,1.6047,1.6055,1.6012,1.6026,1.6016,1.5999,1.6004,1.5986,1.5992,1.5957,1.5955,1.5969,1.5951,1.5985,1.5946,1.5955,1.5956,1.5961,1.6055,1.6078,1.6143,1.6021,1.6022,1.6023,0,1.6102,1.6097,1.6131,1.6109,1.6111,1.6124,1.612,1.6124,1.6112,1.6099,1.6096,1.6068,1.6083,1.6045,1.6066,1.604,1.6042,1.6034,1.6036,1.6037,1.5994,1.606,1.6163,1.6174,1.6036,1.6035,1.6034,0,1.6181,1.6183,1.6204,1.62,1.6175,1.6185,1.6175,1.6161,1.6162,1.6158,1.6158,1.6157,1.6156,1.6156,1.6128,1.6103,1.6154,1.6113,1.6144,1.6145,1.6158,1.6158,1.6265,1.6158,1.6158,1.6157,1.6157,0,1.626,1.6282,1.6239,1.6252,1.6276,1.624,1.6265,1.6251,1.6239,1.6249,1.6211,1.6221,1.6184,1.619,1.6169,1.619,1.619,1.6181,1.6175,1.6185,1.6186,1.6187,1.6182,1.616,1.6159,1.6159,1.6158,0,1.6353,1.6325,1.6344,1.6319,1.6313,1.6332,1.631,1.6321,1.6302,1.6315,1.6316,1.6287,1.6292,1.6264,1.6265,1.6251,1.6284,1.627,1.6288,1.6284,1.6318,1.6316,1.643,1.6444,1.6327,1.6328,1.6329,0,1.6406,1.6422,1.6398,1.6401,1.6393,1.6399,1.6399,1.6365,1.6367,1.6355,1.6368,1.637,1.6371,1.6382,1.6361,1.6362,1.6349,1.6388,1.6349,1.6358,1.6351,1.6351,1.6353,1.6397,1.6399,1.64,1.6401,0,1.6502,1.6488,1.6489,1.6486,1.6487,1.6483,1.6477,1.6482,1.6445,1.645,1.6455,1.6455,1.6456,1.6459,1.6456,1.6446,1.6419,1.6413,1.6421,1.6432,1.6442,1.6438,1.6312,1.6411,1.641,1.6409,1.6409,1.6408,1.6578,1.659,1.6575,1.6578,1.657,1.6565,1.6574,1.6556,1.6559,1.6557,1.6537,1.6546,1.6534,1.6526,1.652,1.6527,1.6508,1.6519,1.6522,1.6526,1.6532,1.644,1.6526,1.6526,1.6526,1.6525,1.6525,0,1.6674,1.6662,1.6665,1.6657,1.666,1.6631,1.6623,1.6628,1.6636,1.6627,1.6627,1.6634,1.6637,1.6616,1.6617,1.6627,1.6614,1.6629,1.6628,1.6627,1.6548,1.6542,1.6639,1.6639,1.6639,1.6639,1.6639,1.6639,1.6724,1.6744,1.6728,1.6743,1.6731,1.674,1.6737,1.6733,1.6725,1.6734,1.6736,1.6722,1.6709,1.6708,1.671,1.6704,1.6707,1.6726,1.6716,1.6643,1.6632,1.6622,1.6616,1.6726,1.6727,1.6794,1.6794,1.6795]}]]